GW2092 Weather Reports


time (UTC)temp
C
wind
direction
speed
KPH
gust
KPH
rain 1hr
cm
rain 24hr
cm
rain mn
cm
humidity
%
barometer
mb
20260507043038 8 332 0.0 3.2 0.00 0.00 0.00 72 1018.8
20260507041537 8 0 0.0 1.6 0.00 0.00 0.00 72 1018.6
20260507040046 8 0 0.0 3.2 0.00 0.00 0.00 70 1018.5
20260507034543 9 0 0.0 3.2 0.00 0.00 0.00 69 1018.5
20260507033044 9 0 0.0 1.6 0.00 0.00 0.00 69 1018.4
20260507031538 10 358 0.0 4.8 0.00 0.00 0.00 68 1018.3
20260507030047 9 0 0.0 1.6 0.00 0.00 0.00 69 1018.2
20260507024544 10 0 0.0 1.6 0.00 0.00 0.00 69 1018.1
20260507023044 9 0 0.0 1.6 0.00 0.00 0.00 69 1017.9
20260507021548 9 0 0.0 0.0 0.00 0.00 0.00 69 1017.8
20260507020047 10 0 0.0 0.0 0.00 0.00 0.00 68 1017.8
20260507014556 11 0 0.0 1.6 0.00 0.00 0.00 66 1017.6
20260507013050 11 0 0.0 1.6 0.00 0.00 0.00 65 1017.4
20260507011545 11 0 0.0 1.6 0.00 0.00 0.00 63 1017.3
20260507010046 12 0 0.0 1.6 0.00 0.00 0.00 60 1017.1
20260507004545 12 0 0.0 1.6 0.00 0.00 0.00 58 1017.0
20260507003046 13 0 0.0 3.2 0.00 0.00 0.00 55 1016.9
20260507001547 13 332 0.0 9.7 0.00 0.00 0.00 52 1016.8
20260507000038 14 32 0.0 12.9 0.00 0.00 0.00 52 1016.7
20260506234545 14 0 1.6 6.4 0.00 0.00 0.00 53 1016.6
20260506233052 15 0 3.2 12.9 0.00 0.00 0.00 51 1016.3
20260506231542 15 35 1.6 11.3 0.00 0.00 0.00 52 1016.0
20260506230041 15 0 3.2 14.5 0.00 0.00 0.00 50 1015.8
20260506224549 16 353 3.2 12.9 0.00 0.00 0.00 48 1015.9
20260506223037 16 347 1.6 11.3 0.00 0.00 0.00 50 1015.8
20260506221545 16 31 3.2 11.3 0.00 0.00 0.00 51 1015.7
20260506220048 16 51 0.0 9.7 0.00 0.00 0.00 54 1015.9
20260506214550 16 358 1.6 12.9 0.00 0.00 0.00 52 1015.9
20260506213040 16 23 0.0 11.3 0.00 0.00 0.00 51 1015.9
20260506211539 16 69 1.6 12.9 0.00 0.00 0.00 52 1015.9
20260506210047 16 62 1.6 11.3 0.00 0.00 0.00 51 1016.2
20260506204549 16 350 1.6 12.9 0.00 0.00 0.00 50 1016.2
20260506203045 16 77 1.6 11.3 0.00 0.00 0.00 54 1016.6
20260506201545 16 13 1.6 12.9 0.00 0.00 0.00 55 1016.8
20260506200047 16 0 1.6 9.7 0.00 0.00 0.00 52 1017.0
20260506194542 15 0 0.0 9.7 0.00 0.00 0.00 54 1016.8
20260506193039 16 0 3.2 12.9 0.00 0.00 0.00 54 1017.0
20260506191538 16 38 0.0 12.9 0.00 0.00 0.00 54 1017.2
20260506190045 16 0 1.6 9.7 0.00 0.00 0.00 54 1017.4
20260506184542 15 8 1.6 12.9 0.00 0.00 0.00 55 1017.5
20260506183039 16 278 0.0 9.7 0.00 0.00 0.00 59 1017.7
20260506181539 15 63 0.0 9.7 0.00 0.00 0.00 59 1018.3
20260506180105 15 108 1.6 6.4 0.00 0.00 0.00 59 1018.6
20260506174543 15 0 1.6 9.7 0.00 0.00 0.00 62 1018.7
20260506173054 15 0 0.0 6.4 0.00 0.00 0.00 61 1018.6
20260506171545 15 37 1.6 9.7 0.00 0.00 0.00 58 1018.6
20260506170041 15 266 0.0 11.3 0.00 0.00 0.00 58 1018.4
20260506164544 15 61 0.0 9.7 0.00 0.00 0.00 60 1018.7
20260506163050 14 250 1.6 9.7 0.00 0.00 0.00 62 1018.2
20260506161553 13 309 4.8 16.1 0.00 0.00 0.00 64 1017.8
20260506160046 12 59 3.2 14.5 0.00 0.00 0.00 65 1017.2
20260506154542 12 63 3.2 9.7 0.00 0.03 0.00 66 1017.5
20260506153046 12 102 0.0 11.3 0.00 0.03 0.00 71 1017.7
20260506151547 11 0 4.8 14.5 0.00 0.03 0.00 67 1017.5
20260506150046 11 81 1.6 9.7 0.00 0.03 0.00 73 1017.4
20260506144600 10 0 1.6 9.7 0.00 0.03 0.00 74 1017.3
20260506143050 10 63 1.6 12.9 0.00 0.03 0.00 75 1017.4
20260506141545 9 56 0.0 11.3 0.00 0.03 0.00 78 1017.5
20260506140048 9 23 3.2 9.7 0.00 0.03 0.00 77 1017.7
20260506134545 8 51 1.6 11.3 0.00 0.03 0.00 80 1017.4
20260506133046 8 0 0.0 12.9 0.00 0.03 0.00 83 1017.6
20260506131544 7 39 1.6 9.7 0.00 0.03 0.00 85 1017.4
20260506130052 7 0 1.6 11.3 0.00 0.03 0.00 87 1017.2
20260506124550 7 0 1.6 11.3 0.00 0.08 0.00 87 1017.0
20260506123039 7 342 1.6 9.7 0.00 0.08 0.00 87 1017.0
20260506121548 7 15 1.6 17.7 0.00 0.08 0.00 87 1017.0
20260506120047 7 315 1.6 14.5 0.00 0.08 0.00 88 1017.2
20260506114539 7 27 1.6 11.3 0.00 0.08 0.00 88 1016.8
20260506113038 7 105 1.6 9.7 0.00 0.08 0.00 89 1016.7
20260506111547 7 336 3.2 9.7 0.00 0.08 0.00 88 1016.6
20260506110046 7 88 1.6 9.7 0.00 0.08 0.00 88 1016.2
20260506104537 7 0 0.0 9.7 0.00 0.13 0.00 88 1015.7
20260506103043 7 0 1.6 9.7 0.00 0.13 0.00 88 1015.7
20260506101541 7 0 1.6 9.7 0.00 0.13 0.00 88 1015.0
20260506100038 7 0 0.0 8.0 0.00 0.13 0.00 88 1014.6
20260506094558 7 338 0.0 8.0 0.00 0.23 0.00 87 1014.5
20260506093047 7 326 1.6 11.3 0.00 0.23 0.00 86 1014.5
20260506091545 7 0 1.6 6.4 0.00 0.23 0.00 85 1014.3
20260506090044 7 0 0.0 4.8 0.00 0.23 0.00 86 1013.6
20260506084540 7 90 0.0 3.2 0.00 0.81 0.00 86 1013.3
20260506083042 7 82 0.0 4.8 0.00 0.81 0.00 86 1013.8
20260506081544 7 0 0.0 6.4 0.00 0.81 0.00 85 1013.5
20260506073055 7 256 0.0 8.0 0.00 1.42 0.00 86 1012.8
20260506071541 7 0 1.6 9.7 0.00 1.42 0.00 86 1012.7
20260506061545 7 332 3.2 14.5 0.00 2.11 0.00 89 1012.9
20260506044551 7 0 1.6 9.7 0.00 2.18 2.18 89 1013.6